Location: Lombard
(41.8800°N, 88.0080°W)
Time: 19:02:15
(UTC-05:00)

Transit 2A - Pass Details

Date: 07 February 2023
Orbit: 591 x 964 km, 66.7° (Epoch: 29 March)

Event Time Altitude Azimuth Distance (km) Brightness Sun altitude
Rises 14:45:09 0° 173° (S) 2,943 9.6 22.2°
Reaches altitude 10° 14:47:42 10° 159° (SSE) 2,090 8.7 21.9°
Maximum altitude 14:51:27 24° 107° (ESE) 1,464 7.4 21.4°
Drops below altitude 10° 14:55:30 10° 55° (NE) 2,285 8.0 20.9°
Sets 14:58:25 0° 42° (NE) 3,290 8.7 20.5°
